CST,Max TemperatureF,Mean TemperatureF,Min TemperatureF,Max Dew PointF,MeanDew PointF,Min DewpointF,Max Humidity, Mean Humidity, Min Humidity, Max Sea Level PressureIn, Mean Sea Level PressureIn, Min Sea Level PressureIn, Max VisibilityMiles, Mean VisibilityMiles, Min VisibilityMiles, Max Wind SpeedMPH, Mean Wind SpeedMPH, Max Gust SpeedMPH,PrecipitationIn, CloudCover, Events, WindDirDegrees
2013-1-1,15,12,10,7,3,0,79,66,57,30.17,30.09,30.03,10,10,10,14,9,17,0.00,1,,283
2013-1-2,23,18,12,16,11,7,86,76,63,30.10,30.05,30.00,10,10,7,9,8,,0.00,8,,226
2013-1-3,26,22,17,18,14,9,80,73,63,30.09,30.03,29.97,10,9,5,20,10,28,0.00,7,,261
2013-1-4,26,20,15,18,13,9,79,71,64,30.11,29.97,29.89,10,10,7,24,18,32,0.00,0,,257
2013-1-5,32,22,12,25,18,10,100,81,60,30.16,29.99,29.82,10,9,3,14,5,20,0.00,1,,226
2013-1-6,30,24,17,25,19,12,93,74,59,30.21,30.02,29.81,10,10,9,23,10,30,0.00,5,,308
2013-1-7,35,26,17,23,16,9,86,64,48,30.20,30.01,29.90,10,10,10,26,13,36,0.00,0,,213
2013-1-8,39,30,24,34,27,19,93,79,65,30.09,30.00,29.83,10,8,3,22,10,31,0.00,3,,197
2013-1-9,39,34,28,28,25,19,75,67,56,30.41,30.05,29.80,10,10,10,24,17,33,0.00,2,,254
2013-1-10,39,31,23,34,26,18,93,78,60,30.47,30.31,29.95,10,10,3,15,5,22,0.14,2,,158
2013-1-11,44,40,35,43,38,34,100,92,87,29.93,29.69,29.57,10,2,0,17,11,25,0.26,8,,174
2013-1-12,46,35,24,43,29,14,100,74,60,29.96,29.73,29.54,10,9,2,26,15,36,0.00,3,,228
2013-1-13,24,20,15,14,11,3,68,66,58,30.08,29.94,29.87,10,10,5,20,10,25,0.00,8,,287
2013-1-14,21,14,8,9,5,1,79,64,50,30.36,30.30,30.09,10,10,10,18,12,24,0.00,0,,262
2013-1-15,28,18,8,14,9,3,85,64,47,30.37,30.23,29.99,10,10,10,20,9,25,0.00,0,,223
2013-1-16,30,24,19,23,15,7,75,64,46,30.01,29.80,29.63,10,10,2,24,14,34,0.00,6,,252
2013-1-17,21,16,10,10,1,-4,73,54,41,30.34,30.23,30.03,10,10,10,16,12,24,0.00,3,,322
2013-1-18,35,20,5,27,14,-2,93,75,57,30.36,30.01,29.71,10,9,1,25,6,36,0.00,5,,229
2013-1-19,42,30,17,34,23,1,93,78,49,29.79,29.65,29.48,10,9,0,30,9,45,0.01,5,,257
2013-1-20,14,10,3,0,-4,-9,72,56,48,30.18,30.09,29.76,10,10,10,29,18,37,0.00,2,,293
2013-1-21,3,-2,-7,-8,-15,-24,66,54,42,30.17,30.08,30.02,10,10,10,22,15,29,0.00,3,,291
2013-1-22,3,-2,-7,-9,-15,-20,65,56,43,30.25,30.22,30.15,10,10,10,17,12,24,0.00,0,,284
2013-1-23,10,4,-2,7,-4,-11,85,67,56,30.34,30.15,30.03,10,9,3,21,11,29,0.00,5,,283
2013-1-24,12,6,1,9,-2,-8,85,65,56,30.62,30.50,30.34,10,10,2,16,10,24,0.00,1,,344
2013-1-25,19,14,10,16,11,5,93,83,73,30.33,30.05,29.90,10,5,1,15,7,18,0.00,7,,255
2013-1-26,23,14,5,14,7,0,85,73,63,30.34,30.27,30.10,10,10,10,9,6,,0.00,3,,269
2013-1-27,33,27,21,30,24,12,93,82,64,30.33,30.16,29.90,10,6,0,18,10,30,0.00,8,,179
2013-1-28,35,32,30,34,31,28,100,90,81,29.96,29.87,29.77,10,7,0,14,8,24,0.13,8,,248
2013-1-29,44,38,33,45,36,30,100,95,87,29.84,29.58,29.49,10,4,0,16,9,23,0.48,8,,136
2013-1-30,33,24,14,32,21,7,93,86,68,29.50,29.37,29.26,10,3,0,28,17,34,0.00,8,,344
2013-1-31,15,10,6,9,5,0,85,71,58,29.97,29.70,29.44,10,9,1,21,14,28,0.00,7,,296